N264CP KLAX-KSAN

Flight info

Callsign N264CP
Flight time N/A
Altitude 13000
Route LAXX1 MZB
Aircraft SF50/L-VGD/C

Departure

Time 2026-04-26 22:04
Airport Los Angeles International Airport (KLAX)

Arrival

Time N/A
Airport San Diego International Airport (KSAN)
Time Latitude Longitude Altitude Speed Heading
2026-04-26 21:52 33.93391 -118.39570 87 ft 0 kts 225°
2026-04-26 21:57 33.93385 -118.39554 87 ft 7 kts
2026-04-26 21:57 33.93384 -118.39554 87 ft 0 kts
2026-04-26 21:57 33.93387 -118.39553 87 ft 0 kts 23°
2026-04-26 21:58 33.93388 -118.39553 87 ft 1 kts 23°
2026-04-26 21:58 33.93395 -118.39548 88 ft 3 kts 34°
2026-04-26 21:58 33.93427 -118.39508 88 ft 11 kts 73°
2026-04-26 21:58 33.93446 -118.39395 88 ft 15 kts 26°
2026-04-26 21:59 33.93507 -118.39320 87 ft 14 kts 83°
2026-04-26 21:59 33.93520 -118.39196 87 ft 16 kts 82°
2026-04-26 21:59 33.93533 -118.39064 87 ft 16 kts 83°
2026-04-26 21:59 33.93547 -118.38920 87 ft 18 kts 82°
2026-04-26 22:00 33.93563 -118.38763 87 ft 19 kts 83°
2026-04-26 22:00 33.93580 -118.38605 87 ft 19 kts 83°
2026-04-26 22:00 33.93596 -118.38448 90 ft 19 kts 83°
2026-04-26 22:00 33.93612 -118.38316 89 ft 13 kts 68°
2026-04-26 22:01 33.93649 -118.38278 89 ft 0 kts 359°
2026-04-26 22:03 33.93653 -118.38278 87 ft 2 kts 359°
2026-04-26 22:03 33.93682 -118.38281 92 ft 6 kts 354°
2026-04-26 22:03 33.93727 -118.38326 91 ft 13 kts 282°
2026-04-26 22:03 33.93710 -118.38538 89 ft 54 kts 263°
2026-04-26 22:04 33.93636 -118.39269 128 ft 113 kts 263°
2026-04-26 22:04 33.93581 -118.40057 892 ft 89 kts 264°
2026-04-26 22:04 33.93534 -118.40902 1165 ft 112 kts 263°
2026-04-26 22:04 33.93430 -118.41924 1353 ft 134 kts 262°
2026-04-26 22:05 33.93313 -118.43097 1517 ft 144 kts 263°
2026-04-26 22:05 33.93178 -118.44285 1882 ft 142 kts 262°
2026-04-26 22:05 33.93010 -118.45475 2144 ft 147 kts 253°
2026-04-26 22:05 33.92394 -118.46475 2416 ft 154 kts 230°
2026-04-26 22:06 33.91660 -118.47424 2716 ft 155 kts 232°
2026-04-26 22:06 33.90931 -118.48373 3025 ft 153 kts 232°
2026-04-26 22:06 33.90201 -118.49331 3222 ft 157 kts 233°
2026-04-26 22:06 33.89452 -118.50296 3482 ft 157 kts 233°
2026-04-26 22:07 33.88702 -118.51251 3736 ft 159 kts 233°
2026-04-26 22:07 33.87947 -118.52222 4035 ft 159 kts 231°
2026-04-26 22:07 33.86923 -118.52815 4190 ft 175 kts 194°
2026-04-26 22:07 33.86117 -118.52890 4347 ft 175 kts 191°
2026-04-26 22:08 33.84496 -118.53030 4655 ft 174 kts 192°
2026-04-26 22:08 33.83279 -118.53117 4847 ft 176 kts 190°
2026-04-26 22:08 33.82054 -118.53238 5036 ft 177 kts 191°
2026-04-26 22:08 33.80824 -118.53359 5229 ft 178 kts 190°
2026-04-26 22:09 33.79596 -118.53496 5422 ft 178 kts 191°
2026-04-26 22:09 33.78358 -118.53620 5588 ft 179 kts 193°
2026-04-26 22:09 33.77115 -118.53714 5769 ft 179 kts 190°
2026-04-26 22:09 33.75871 -118.53828 5945 ft 179 kts 191°
2026-04-26 22:10 33.74624 -118.53963 6079 ft 180 kts 192°
2026-04-26 22:10 33.73369 -118.54114 6234 ft 182 kts 191°
2026-04-26 22:10 33.72109 -118.54245 6424 ft 181 kts 192°
2026-04-26 22:10 33.71182 -118.54334 6537 ft 182 kts 191°
2026-04-26 22:11 33.69922 -118.54460 6687 ft 182 kts 192°
2026-04-26 22:11 33.68659 -118.54583 6838 ft 182 kts 191°
2026-04-26 22:11 33.67394 -118.54703 6983 ft 183 kts 192°
2026-04-26 22:11 33.66123 -118.54822 7124 ft 183 kts 191°
2026-04-26 22:12 33.64855 -118.54938 7270 ft 183 kts 192°
2026-04-26 22:12 33.63580 -118.55051 7394 ft 185 kts 191°
2026-04-26 22:12 33.62315 -118.55160 7531 ft 185 kts 192°